Weather Roundup
Issued by NWS Corpus Christi, TX

Home | Current Version | Previous Version | Text Only | Print | Product List | Glossary On
Versions: 1 2 3 4 5 6 7 8 9 10 11 12 13 14 15 16 17 18 19 20 21 22 23 24 25 26 27 28 29 30 31 32 33 34 35 36 37 38 39 40 41 42 43 44 45 46 47 48 49 50
000
ASUS44 KCRP 011110
HRRCRP

SOUTH TEXAS REGIONAL WEATHER ROUNDUP
NATIONAL WEATHER SERVICE CORPUS CHRISTI TX
600 AM CDT FRI AUG 01 2014


TXZ229>244-011200-
...CORPUS CHRISTI AREA OBSERVATIONS...

CITY           SKY/WX    TMP DP  RH WIND       PRES   REMARKS
CORPUS CHRISTI MOCLDY    77  74  90 CALM      29.93R
NAS CORPUS CHR CLOUDY    81  78  91 S7        29.92R
ROCKPORT       MOCLDY    81  76  84 CALM      29.95R
KINGSVILLE NAS PTCLDY    79  77  94 S7        29.91S
ALICE          CLOUDY    77  74  90 NE5       29.92R
FALFURRIAS     CLEAR     65  32  29 SE3       29.90S
$$

...VICTORIA AREA OBSERVATIONS...

CITY           SKY/WX    TMP DP  RH WIND       PRES   REMARKS
VICTORIA       PTCLDY    82  76  81 CALM      29.97R
BEEVILLE       FAIR      80  75  85 CALM      29.95S
PLEASANTON     PTCLDY    77  66  69 NE7       29.97S
SAN ANTONIO    CLOUDY    79  63  57 NE8       30.00S
$$

...LAREDO AREA OBSERVATIONS...

CITY           SKY/WX    TMP DP  RH WIND       PRES   REMARKS
LAREDO         MOCLDY    82  72  72 E7        29.94R
COTULLA        MOCLDY    81  72  74 E9        29.94S
DEL RIO        PTCLDY    78  67  68 CALM      29.98R
MCALLEN        CLEAR     80  76  87 SE7       29.90F
HEBBRONVILLE   CLEAR     77  73  86 E5        29.93S
$$

...OTHER TEXAS OBSERVATIONS...

CITY           SKY/WX    TMP DP  RH WIND       PRES   REMARKS
BROWNSVILLE    CLEAR     79  76  90 S9        29.91R
HOUSTON        CLOUDY    75  73  94 W5        29.96R
COL. STATION   CLOUDY    72  68  87 NW5       29.98R
AUSTIN         CLOUDY    75  65  70 N9        30.00S
WACO           CLOUDY    72  65  78 N7        30.01R
FORT WORTH     CLOUDY    71  66  84 N12       30.01S
WICHITA FALLS  PTCLDY    66  65  96 CALM      30.05F
LUBBOCK        PTCLDY    63  58  83 CALM      30.17R
EL PASO        CLOUDY    67  62  84 N13       30.17S
$$

...MARINE OBSERVATIONS...

STATION/POSITION TIME  SKY/WX   TEMP    WIND        PRES    VSBY  WAVE   SWELL
                                AIR SEA DIR/SP/G                  HT/PER HT/PER
                 (UTC)          (F)     (DEG/KT/KT) (MB)    (MI)  (FT/S) (FT/S)
PORT ARANSAS     1100            80 82  140/  4/  4 1014.3R
BUOY 90 E PORT A 1100            84 83  210/ 10/ 14 1014.1R         3/ 5   2/ 9
BUOY 45 SE BAFFI 1100            83 83  180/ 14/ 16 1012.8S         3/ 5
BUOY 200 E PT IS 1100            84 86  190/ 10/ 12 1013.8R         1/ 4
BUOY 15 E GALVES 1000            84 86  230/ 12/ 14 1013.3
$$


USA.gov is the U.S. government's official web portal to all federal, state and local government web resources and services.